TimeMST,TemperatureF,Dew PointF,Humidity,Sea Level PressureIn,VisibilityMPH,Wind Direction,Wind SpeedMPH,Gust SpeedMPH,PrecipitationIn,Events,Conditions,WindDirDegrees,DateUTC
12:15 AM,15.8,8.6,73,30.30,10.0,Calm,Calm,-,N/A,,Clear,0,2014-01-28 07:15:00
12:35 AM,15.8,8.6,73,30.30,10.0,Calm,Calm,-,N/A,,Clear,0,2014-01-28 07:35:00
12:55 AM,14.0,8.6,79,30.30,10.0,Calm,Calm,-,N/A,,Clear,0,2014-01-28 07:55:00
1:15 AM,15.8,8.6,73,30.29,10.0,Calm,Calm,-,N/A,,Clear,0,2014-01-28 08:15:00
1:35 AM,12.2,8.6,85,30.30,10.0,South,3.5,-,N/A,,Clear,190,2014-01-28 08:35:00
1:55 AM,14.0,10.4,86,30.30,10.0,South,3.5,-,N/A,,Clear,170,2014-01-28 08:55:00
2:15 AM,14.0,10.4,86,30.31,10.0,Calm,Calm,-,N/A,,Clear,0,2014-01-28 09:15:00
2:35 AM,14.0,6.8,73,30.32,10.0,Calm,Calm,-,N/A,,Clear,0,2014-01-28 09:35:00
2:55 AM,12.2,6.8,79,30.32,10.0,Calm,Calm,-,N/A,,Clear,0,2014-01-28 09:55:00
3:15 AM,10.4,5.0,79,30.32,10.0,SSE,4.6,-,N/A,,Clear,150,2014-01-28 10:15:00
3:35 AM,12.2,6.8,79,30.31,10.0,Calm,Calm,-,N/A,,Clear,0,2014-01-28 10:35:00
3:55 AM,12.2,6.8,79,30.31,10.0,Calm,Calm,-,N/A,,Clear,0,2014-01-28 10:55:00
4:15 AM,12.2,5.0,73,30.31,10.0,Calm,Calm,-,N/A,,Clear,0,2014-01-28 11:15:00
4:35 AM,10.4,5.0,79,30.31,10.0,Calm,Calm,-,N/A,,Clear,0,2014-01-28 11:35:00
4:55 AM,10.4,3.2,73,30.31,10.0,Calm,Calm,-,N/A,,Clear,0,2014-01-28 11:55:00
5:15 AM,10.4,3.2,73,30.31,10.0,SE,3.5,-,N/A,,Clear,130,2014-01-28 12:15:00
5:35 AM,8.6,5.0,85,30.32,10.0,Calm,Calm,-,N/A,,Clear,0,2014-01-28 12:35:00
5:55 AM,8.6,3.2,79,30.33,10.0,Calm,Calm,-,N/A,,Clear,0,2014-01-28 12:55:00
6:15 AM,8.6,6.8,92,30.33,10.0,Calm,Calm,-,N/A,,Clear,0,2014-01-28 13:15:00
6:35 AM,8.6,8.6,100,30.34,10.0,Calm,Calm,-,N/A,,Clear,0,2014-01-28 13:35:00
6:55 AM,8.6,5.0,85,30.34,10.0,SE,3.5,-,N/A,,Clear,140,2014-01-28 13:55:00
7:15 AM,8.6,5.0,85,30.35,10.0,SSE,3.5,-,N/A,,Clear,150,2014-01-28 14:15:00
7:35 AM,8.6,3.2,79,30.35,10.0,Calm,Calm,-,N/A,,Clear,0,2014-01-28 14:35:00
7:55 AM,6.8,3.2,85,30.36,10.0,Calm,Calm,-,N/A,,Clear,0,2014-01-28 14:55:00
8:15 AM,6.8,1.4,79,30.35,10.0,Calm,Calm,-,N/A,,Clear,0,2014-01-28 15:15:00
8:35 AM,8.6,5.0,85,30.35,10.0,Calm,Calm,-,N/A,,Clear,0,2014-01-28 15:35:00
8:55 AM,8.6,5.0,85,30.35,10.0,Calm,Calm,-,N/A,,Clear,0,2014-01-28 15:55:00
9:15 AM,12.2,3.2,67,30.35,10.0,Calm,Calm,-,N/A,,Clear,0,2014-01-28 16:15:00
9:35 AM,12.2,6.8,79,30.35,10.0,Calm,Calm,-,N/A,,Clear,0,2014-01-28 16:35:00
9:55 AM,14.0,6.8,73,30.34,10.0,Calm,Calm,-,N/A,,Clear,0,2014-01-28 16:55:00
10:15 AM,15.8,6.8,68,30.35,10.0,Calm,Calm,-,N/A,,Clear,0,2014-01-28 17:15:00
10:35 AM,-9999,-9999,N/A,-9999,-9999.0,North,-9999.0,-,7.42,,Unknown,0,2014-01-28 17:35:00
10:55 AM,-9999,-9999,N/A,-9999,-9999.0,North,-9999.0,-,7.42,,Unknown,0,2014-01-28 17:55:00
11:15 AM,-9999,-9999,N/A,-9999,-9999.0,North,-9999.0,-,N/A,,Unknown,0,2014-01-28 18:15:00
11:35 AM,-9999,-9999,N/A,-9999,-9999.0,North,-9999.0,-,N/A,,Unknown,0,2014-01-28 18:35:00
11:55 AM,-9999,-9999,N/A,-9999,-9999.0,North,-9999.0,-,N/A,,Unknown,0,2014-01-28 18:55:00
12:15 PM,-9999,-9999,N/A,-9999,-9999.0,North,-9999.0,-,N/A,,Unknown,0,2014-01-28 19:15:00
12:35 PM,21.2,8.6,58,30.29,10.0,Calm,Calm,-,2.58,,Clear,0,2014-01-28 19:35:00
12:55 PM,23.0,6.8,50,30.28,10.0,NNW,3.5,-,2.58,,Clear,340,2014-01-28 19:55:00
1:15 PM,24.8,6.8,46,30.28,10.0,Calm,Calm,-,N/A,,Clear,0,2014-01-28 20:15:00
1:35 PM,24.8,6.8,46,30.27,10.0,Calm,Calm,-,N/A,,Clear,0,2014-01-28 20:35:00
1:55 PM,24.8,6.8,46,30.26,10.0,Calm,Calm,-,N/A,,Clear,0,2014-01-28 20:55:00
2:15 PM,24.8,6.8,46,30.25,10.0,Calm,Calm,-,N/A,,Clear,0,2014-01-28 21:15:00
2:35 PM,24.8,6.8,46,30.23,10.0,Calm,Calm,-,N/A,,Clear,0,2014-01-28 21:35:00
2:55 PM,26.6,6.8,43,30.22,10.0,Calm,Calm,-,N/A,,Clear,0,2014-01-28 21:55:00
3:15 PM,26.6,6.8,43,30.22,10.0,Calm,Calm,-,N/A,,Clear,0,2014-01-28 22:15:00
3:35 PM,26.6,8.6,47,30.22,10.0,Calm,Calm,-,N/A,,Mostly Cloudy,0,2014-01-28 22:35:00
3:55 PM,26.6,6.8,43,30.22,10.0,Calm,Calm,-,N/A,,Overcast,0,2014-01-28 22:55:00
4:15 PM,26.6,6.8,43,30.23,10.0,Calm,Calm,-,N/A,,Overcast,0,2014-01-28 23:15:00
4:35 PM,26.6,6.8,43,30.24,10.0,Calm,Calm,-,N/A,,Overcast,0,2014-01-28 23:35:00
4:55 PM,26.6,8.6,47,30.23,10.0,Calm,Calm,-,N/A,,Overcast,0,2014-01-28 23:55:00
5:15 PM,26.6,8.6,47,30.22,10.0,Calm,Calm,-,N/A,,Overcast,0,2014-01-29 00:15:00
5:35 PM,26.6,8.6,47,30.21,10.0,Calm,Calm,-,N/A,,Overcast,0,2014-01-29 00:35:00
5:55 PM,26.6,8.6,47,30.21,10.0,Calm,Calm,-,N/A,,Overcast,0,2014-01-29 00:55:00
6:15 PM,26.6,10.4,51,30.21,10.0,Calm,Calm,-,N/A,,Overcast,0,2014-01-29 01:15:00
6:35 PM,26.6,10.4,51,30.21,10.0,ENE,4.6,-,N/A,,Overcast,70,2014-01-29 01:35:00
6:55 PM,26.6,10.4,51,30.21,10.0,Calm,Calm,-,N/A,,Overcast,0,2014-01-29 01:55:00
7:15 PM,26.6,12.2,55,30.20,10.0,SSE,3.5,-,N/A,,Overcast,150,2014-01-29 02:15:00
7:35 PM,26.6,12.2,55,30.19,10.0,Calm,Calm,-,N/A,,Overcast,0,2014-01-29 02:35:00
7:55 PM,24.8,14.0,64,30.20,10.0,Calm,Calm,-,N/A,,Overcast,0,2014-01-29 02:55:00
8:35 PM,26.6,12.2,55,30.20,10.0,Calm,Calm,-,N/A,,Overcast,0,2014-01-29 03:35:00
8:55 PM,24.8,12.2,59,30.19,10.0,ESE,3.5,-,N/A,,Overcast,120,2014-01-29 03:55:00
9:15 PM,24.8,12.2,59,30.19,10.0,ESE,5.8,-,N/A,,Overcast,110,2014-01-29 04:15:00
9:35 PM,24.8,12.2,59,30.19,10.0,Calm,Calm,-,N/A,,Overcast,0,2014-01-29 04:35:00
9:55 PM,24.8,12.2,59,30.17,10.0,West,3.5,-,N/A,,Mostly Cloudy,270,2014-01-29 04:55:00
10:15 PM,24.8,14.0,64,30.16,10.0,Calm,Calm,-,N/A,,Scattered Clouds,0,2014-01-29 05:15:00
10:35 PM,24.8,14.0,64,30.14,10.0,SSE,4.6,-,N/A,,Mostly Cloudy,150,2014-01-29 05:35:00
10:55 PM,24.8,12.2,59,30.13,10.0,Calm,Calm,-,N/A,,Overcast,0,2014-01-29 05:55:00
11:15 PM,24.8,14.0,64,30.12,10.0,Calm,Calm,-,N/A,,Mostly Cloudy,0,2014-01-29 06:15:00
11:35 PM,24.8,15.8,69,30.12,10.0,Calm,Calm,-,N/A,,Overcast,0,2014-01-29 06:35:00
11:55 PM,24.8,15.8,69,30.12,10.0,Calm,Calm,-,N/A,,Overcast,0,2014-01-29 06:55:00